Date String (YYYY-MM-DD hh:mm:ss) UTC,Instrument flags,Ambient pressure (hPa),Sample flow (lpm),Bypass flow (lpm),Sample temperature (°C),Ambient temperature (°C),ASC tube jacket temperature (°C),LED temperature (°C),Box temperature (°C),Sample RH (%),Span deviation,Mass concentration (μg/m³),Mass concentration (μg/m³),Mass concentration (μg/m³)
DateTimeUTC,F1_M11,P_M11,Q1_M11,Q2_M11,T1_M11,T2_M11,T3_M11,T4_M11,T5_M11,U1_M11,ZSPAN_M11,X2_M11,X0_M11,X1_M11
2022-02-08 12:00:00,,0825.4,4.99,0.00,22.2,21.4,00.0,31.3,23.9,06.4,0000.0,0000.97,0003.42,0000.52
2022-02-08 12:01:00,,0825.6,5.01,0.00,22.2,21.3,00.0,31.3,23.9,06.4,0000.0,0000.94,0003.38,0000.52
2022-02-08 12:02:00,,0825.6,4.99,0.00,22.2,21.3,00.0,31.3,23.9,06.6,0000.0,0000.98,0002.67,0000.52
2022-02-08 12:03:00,,0825.6,5.00,0.00,22.2,21.3,00.0,31.3,23.9,06.6,0000.0,0000.97,0002.25,0000.53
2022-02-08 12:04:00,,0825.7,5.00,0.00,22.2,21.3,00.0,31.3,23.9,06.7,0000.0,0000.93,0002.07,0000.53
2022-02-08 12:05:00,,0825.8,4.99,0.00,22.2,21.3,00.0,31.3,23.8,06.4,0000.0,0000.91,0001.98,0000.54
2022-02-08 12:06:00,,0825.8,5.01,0.00,22.1,21.2,00.0,31.3,23.7,06.5,0000.0,0000.93,0002.01,0000.55
2022-02-08 12:07:00,,0825.8,5.01,0.00,22.1,21.1,00.0,31.2,23.7,06.8,0000.0,0000.93,0001.85,0000.55
2022-02-08 12:08:00,,0825.7,5.00,0.00,22.1,21.2,00.0,31.2,23.6,06.7,0000.0,0000.89,0001.62,0000.55
2022-02-08 12:09:00,,0825.7,5.01,0.00,22.1,21.2,00.0,31.2,23.8,06.6,0000.0,0000.86,0001.55,0000.54
2022-02-08 12:10:00,,0825.7,4.99,0.00,22.1,21.2,00.0,31.2,23.8,06.7,0000.0,0000.86,0001.51,0000.54
2022-02-08 12:11:00,,0825.7,5.00,0.00,22.1,21.2,00.0,31.2,23.8,06.8,0000.0,0000.88,0001.57,0000.55
2022-02-08 12:12:00,,0825.6,5.00,0.00,22.1,21.2,00.0,31.2,23.8,06.8,0000.0,0000.89,0001.54,0000.55
2022-02-08 12:13:00,,0825.6,5.00,0.00,22.1,21.1,00.0,31.2,23.8,06.5,0000.0,0000.86,0001.80,0000.55
2022-02-08 12:14:00,,0825.6,4.99,0.00,22.1,21.3,00.0,31.2,23.9,06.5,0000.0,0000.84,0003.43,0000.54
2022-02-08 12:15:00,,0825.8,5.01,0.00,22.2,22.0,00.0,31.3,24.1,06.3,0000.0,0000.84,0003.94,0000.53
2022-02-08 12:16:00,,0825.9,4.99,0.00,22.4,22.8,00.0,31.3,24.4,06.5,0000.0,0000.83,0003.99,0000.52
2022-02-08 12:17:00,,0825.6,5.00,0.00,22.5,23.0,00.0,31.3,24.6,06.5,0000.0,0000.82,0003.99,0000.51
2022-02-08 12:18:00,,0825.7,5.00,0.00,22.5,22.8,00.0,31.4,24.5,06.5,0000.0,0000.78,0003.84,0000.51
2022-02-08 12:19:00,,0825.7,5.00,0.00,22.5,22.6,00.0,31.4,24.4,06.7,0000.0,0000.76,0003.80,0000.51
2022-02-08 12:20:00,,0825.9,5.00,0.00,22.5,22.4,00.0,31.4,24.3,06.5,0000.0,0000.76,0003.87,0000.52
2022-02-08 12:21:00,,0825.7,5.00,0.00,22.5,22.3,00.0,31.4,24.3,06.6,0000.0,0000.76,0004.13,0000.51
2022-02-08 12:22:00,,0825.5,5.01,0.00,22.5,22.1,00.0,31.4,24.2,06.4,0000.0,0000.77,0004.33,0000.51
2022-02-08 12:23:00,,0825.8,4.99,0.00,22.4,22.0,00.0,31.4,24.2,06.3,0000.0,0000.76,0004.57,0000.49
2022-02-08 12:24:00,,0825.8,5.01,0.00,22.4,21.9,00.0,31.4,24.2,06.6,0000.0,0000.75,0004.21,0000.48
2022-02-08 12:25:00,,0825.6,4.99,0.00,22.4,21.8,00.0,31.4,24.1,06.9,0000.0,0000.76,0002.53,0000.48
2022-02-08 12:26:00,,0825.5,4.99,0.00,22.4,21.7,00.0,31.4,24.1,06.9,0000.0,0000.74,0001.95,0000.47
2022-02-08 12:27:00,,0825.5,5.00,0.00,22.4,21.7,00.0,31.4,24.1,06.6,0000.0,0000.74,0001.88,0000.48
2022-02-08 12:28:00,,0825.5,4.99,0.00,22.3,21.5,00.0,31.4,24.0,06.4,0000.0,0000.74,0001.90,0000.49
2022-02-08 12:29:00,,0825.5,5.00,0.00,22.3,21.5,00.0,31.4,24.0,06.6,0000.0,0000.77,0002.06,0000.51
2022-02-08 12:30:00,,0825.5,5.00,0.00,22.3,21.4,00.0,31.4,24.0,06.6,0000.0,0000.78,0002.69,0000.51
2022-02-08 12:31:00,,0825.6,5.01,0.00,22.3,21.4,00.0,31.4,24.0,06.7,0000.0,0000.79,0002.65,0000.52
2022-02-08 12:32:00,,0825.4,4.99,0.00,22.3,21.4,00.0,31.3,23.9,06.7,0000.0,0000.78,0002.36,0000.53
2022-02-08 12:33:00,,0825.4,5.00,0.00,22.2,21.3,00.0,31.3,24.0,06.7,0000.0,0000.77,0002.29,0000.53
2022-02-08 12:34:00,,0825.5,5.00,0.00,22.2,21.3,00.0,31.3,24.0,06.7,0000.0,0000.79,0002.16,0000.54
2022-02-08 12:35:00,,0825.5,5.01,0.00,22.2,21.3,00.0,31.3,24.0,06.9,0000.0,0000.79,0002.14,0000.55
2022-02-08 12:36:00,,0825.4,5.01,0.00,22.2,21.3,00.0,31.3,23.9,06.8,0000.0,0000.81,0002.17,0000.56
2022-02-08 12:37:00,,0825.5,4.99,0.00,22.2,21.3,00.0,31.3,23.9,06.7,0000.0,0000.84,0002.22,0000.56
2022-02-08 12:38:00,,0825.5,5.01,0.00,22.2,21.3,00.0,31.3,23.9,06.7,0000.0,0000.85,0002.27,0000.57
2022-02-08 12:39:00,,0825.6,4.99,0.00,22.2,21.2,00.0,31.2,23.8,06.9,0000.0,0000.87,0002.32,0000.56
2022-02-08 12:40:00,,0825.5,5.00,0.00,22.1,21.2,00.0,31.2,23.8,07.2,0000.0,0000.85,0002.30,0000.55
2022-02-08 12:41:00,,0825.4,4.98,0.00,22.1,21.3,00.0,31.2,23.8,07.1,0000.0,0000.84,0001.71,0000.55
2022-02-08 12:42:00,,0825.3,5.01,0.00,22.1,21.3,00.0,31.2,23.8,06.9,0000.0,0000.85,0003.16,0000.54
2022-02-08 12:43:00,,0825.3,5.00,0.00,22.1,21.2,00.0,31.2,23.8,06.7,0000.0,0000.86,0003.78,0000.53
2022-02-08 12:44:00,,0825.2,4.99,0.00,22.1,21.2,00.0,31.2,23.8,06.8,0000.0,0000.84,0003.65,0000.53
2022-02-08 12:45:00,,0825.2,5.01,0.00,22.1,21.3,00.0,31.2,23.9,06.9,0000.0,0000.78,0003.39,0000.52
2022-02-08 12:46:00,,0825.3,5.00,0.00,22.2,21.9,00.0,31.3,24.1,07.2,0000.0,0000.80,0003.50,0000.52
2022-02-08 12:47:00,,0825.3,5.00,0.00,22.3,22.7,00.0,31.3,24.3,06.9,0000.0,0000.79,0003.58,0000.52
2022-02-08 12:48:00,,0825.2,5.00,0.00,22.4,22.9,00.0,31.3,24.5,06.9,0000.0,0000.79,0003.61,0000.52
2022-02-08 12:49:00,,0825.3,5.00,0.00,22.5,22.7,00.0,31.3,24.4,06.7,0000.0,0000.77,0003.55,0000.51
2022-02-08 12:50:00,,0825.3,5.00,0.00,22.5,22.5,00.0,31.4,24.3,06.9,0000.0,0000.75,0003.50,0000.51
2022-02-08 12:51:00,,0825.3,5.00,0.00,22.4,22.3,00.0,31.4,24.2,06.9,0000.0,0000.76,0003.52,0000.52
2022-02-08 12:52:00,,0825.2,5.02,0.00,22.4,22.1,00.0,31.4,24.2,07.0,0000.0,0000.77,0003.53,0000.51
2022-02-08 12:53:00,,0825.1,5.00,0.00,22.4,22.0,00.0,31.4,24.1,06.9,0000.0,0000.78,0002.40,0000.51
2022-02-08 12:54:00,,0824.9,5.00,0.00,22.4,21.8,00.0,31.4,24.1,06.7,0000.0,0000.75,0001.35,0000.51
2022-02-08 12:55:00,,0825.0,5.00,0.00,22.3,21.6,00.0,31.3,24.1,06.6,0000.0,0000.76,0001.38,0000.52
2022-02-08 12:56:00,,0824.9,5.00,0.00,22.3,21.5,00.0,31.3,24.1,06.8,0000.0,0000.77,0001.40,0000.52
2022-02-08 12:57:00,,0825.0,5.03,0.00,22.3,21.4,00.0,31.3,24.0,06.6,0000.0,0000.79,0001.71,0000.52
2022-02-08 12:58:00,,0824.8,4.98,0.00,22.3,21.4,00.0,31.3,24.0,06.8,0000.0,0000.79,0002.09,0000.51
2022-02-08 12:59:00,,0824.9,5.01,0.00,22.3,21.3,00.0,31.3,24.0,06.9,0000.0,0000.80,0002.27,0000.51
